SCP
0 0 0 0 0 0 0 0 0 0 0 -0 -0 0 0 0 0 0 0 0 0 0 0 0 0 0 0 0 0 0 0 0 0 0 0 0 0 0 0 0 0 0 0 0
-0 0 0 0 0 0 0 0 0 0 -0 0 0 0 0 0 0 0 0 0 0 0 0 0 0 0 0 0 0 0 0 0 0 0 0 0 0 0 0 0 0 0 0 0
0 0 0 0 -0 -0 0 0 0 0 0 0 0 0 0 0 0 0 0 0 0 0 0 0 0 0 0 0 0 0 0 0 0 0 0 0 0 0 0 0 0 0 0 0
0 -0 0 0 0 0 0 0 0 0 0 0 0 0 0 0 0 0 0 0 0 0 0 0 0 0 0 0 0 0 0 0 0 0 0 0 0 0 0 0 0 0 0 0
0 -0 -0 0 -0 -0 0 0 0 0 0 0 0 0 0 0 0 0 0 0 0 0 0 0 0 0 0 0 0 0 0 0 0 0 0 0 0 0 0 0 0 0 0 0
0 0 0 -0 -0 0 -0 -0 0 0 0 0 0 0 0 0 0 0 0 0 0 -0 -0 -0 -0 0 0 0 0 0 0 0 0 0 0 0 0 0 0 0 0 0 0 0
0 0 -0 0 0 0 -0 -0 -0 0 0 -0 0 0 0 0 0 0 0 0 0 0 0 0 0 0 0 0 0 0 0 0 0 0 0 0 0 0 0 0 -0 -0 0 0
0 0 0 0 0 -0 -0 -0 -0 -0 0 -0 -0 0 0 0 0 0 0 0 0 0 0 0 0 0 0 0 0 0 0 0 0 0 0 0 0 0 0 -0 -0 -0 -0 -0
0 0 0 0 0 0 -0 -0 -0 -0 -0 -0 -0 -0 -0 0 0 0 0 0 0 0 0 0 0 0 0 0 0 0 0 0 0 0 0 0 0 0 -0 -0 0 0 0 0
0 0 0 0 0 0 0 0 -0 -0 -0 0 -0 -0 -0 -0 0 0 0 0 0 0 0 0 0 0 0 0 0 0 0 0 -0 -0 -0 -0 -0 -0 -0 -0 -0 -0 -0 0
0 0 0 0 0 0 -0 0 0 -0 0 0 0 0 -0 -0 -0 0 0 0 0 0 0 0 0 0 0 0 0 0 0 0 0 0 0 -0 -0 -0 -0 0 0 0 0 0
0 0 0 0 -0 -0 -0 -0 -0 0 0 0 0 0 0 0 0 0 0 0 0 0 0 0 0 0 0 0 0 0 0 0 0 0 0 0 0 0 0 0 0 0 0 0
0 0 0 0 0 0 0 0 0 0 0 0 0 0 0 0 0 0 0 0 0 0 0 0 0 0 0 0 0 0 0 0 0 0 0 0 0 0 0 0 0 0 0 0
0 0 0 0 0 0 0 0 0 0 0 0 0 0 0 0 0 0 0 0 0 0 0 0 0 0 0 0 0 0 0 0 0 0 0 0 0 0 0 0 0 0 0 0
0 0 0 0 0 0 0 0 0 0 0 0 0 0 0 0 0 0 0 0 0 0 0 0 0 0 0 0 0 0 0 0 0 0 0 0 0 0 0 0 0 0 0 0
0 0 0 0 0 0 0 0 0 0 0 0 0 0 0 0 0 0 0 0 0 0 0 0 0 0 0 0 0 0 0 0 0 0 0 0 0 0 0 0 0 0 0 0
0 0 0 0 0 0 0 0 0 0 0 0 0 0 0 0 0 0 0 0 0 0 0 0 0 0 0 0 0 0 0 0 0 0 0 0 0 0 0 0 0 0 0 0
-0 -0 0 0 0 0 0 0 0 0 0 0 0 0 0 0 0 0 0 0 0 0 0 0 0 0 0 0 0 0 0 0 0 0 0 0 0 0 0 0 0 0 0 0
-0 0 0 0 0 -0 0 0 0 0 0 0 0 0 0 0 0 0 0 0 0 0 0 0 0 0 0 0 0 0 0 0 0 0 0 0 0 0 0 0 0 0 0 0
0 0 0 0 0 0 0 0 0 0 0 0 0 0 0 0 0 0 0 0 0 0 0 0 0 0 0 0 0 0 0 0 0 0 0 0 0 0 0 0 0 0 0 0
-0 0 0 0 0 0 0 0 0 0 0 0 0 0 0 0 0 0 0 0 0 0 0 0 0 0 0 0 0 0 0 0 0 0 0 0 0 0 0 0 0 0 0 0
-0 -0 -0 0 0 0 0 0 0 0 0 0 0 0 0 0 0 0 0 0 0 0 0 0 0 0 0 0 0 0 0 0 0 0 0 0 0 0 0 0 0 0 0 0
-0 -0 0 0 0 0 0 0 0 0 0 0 0 0 0 0 0 0 0 0 0 0 0 0 0 0 0 0 0 0 0 0 0 0 0 0 0 0 0 0 0 0 0 0
-0 0 0 0 0 0 0 0 0 0 0 0 0 0 0 0 0 0 0 0 0 0 0 0 0 0 0 0 0 0 0 0 0 0 0 0 0 0 0 0 0 0 0 0
0 0 0 0 0 0 0 0 0 0 0 0 0 0 0 0 0 0 0 0 0 0 0 0 0 0 0 0 0 0 0 0 0 0 0 0 0 0 0 0 0 0 0 0
0 0 0 0 0 0 0 0 0 0 0 0 0 0 0 0 0 0 0 0 0 0 0 0 0 0 0 0 0 0 0 0 0 0 0 0 0 0 0 0 0 0 0 0
0 0 0 0 0 0 0 0 0 0 0 0 0 0 0 0 0 0 0 0 0 0 0 0 0 0 0 0 0 0 0 0 0 0 0 0 0 0 0 0 0 0 0 0
Wind_Speed_500mb
13 14 9 8 10 22 21 12 11 9 7 32 22 5 4 14 13 14 14 11 13 13 16 18 19 19 20 21 24 27 31 36 42 44 46 49 54 57 61 62 63 64 67 68
11 3 8 11 17 20 23 6 23 31 37 8 2 5 8 10 11 9 12 8 9 12 16 21 22 23 25 28 32 36 45 49 49 53 57 61 61 63 67 70 69 65 64 62
10 6 8 13 15 24 10 8 13 12 17 3 6 7 12 9 9 5 5 2 8 14 18 17 22 23 29 31 34 41 45 46 49 54 58 58 59 61 62 62 59 59 59 54
9 10 4 11 4 7 11 14 32 16 6 9 7 5 11 7 6 8 10 14 16 17 19 23 25 28 34 35 37 37 41 41 42 44 48 49 50 52 53 53 52 50 47 45
1 5 14 4 8 13 14 14 27 29 8 10 9 4 11 13 12 17 20 20 22 25 29 33 32 34 31 31 31 32 34 36 37 37 37 38 41 41 40 40 41 40 38 36
3 3 8 11 6 12 1 9 10 23 16 15 15 5 7 29 26 27 27 28 32 33 31 30 26 28 25 26 28 29 31 33 33 31 29 28 30 29 30 29 30 31 30 28
8 7 16 5 8 14 10 11 12 42 37 42 11 9 11 36 37 33 36 38 36 32 28 27 25 22 20 21 23 25 26 25 25 24 21 21 22 23 22 22 22 22 20 20
7 7 15 18 11 12 9 5 9 36 46 56 35 18 31 39 45 46 45 42 37 34 30 28 27 26 25 25 23 23 23 23 22 21 20 19 19 18 18 17 16 13 12 11
15 12 8 41 15 20 16 11 7 30 43 48 48 28 40 46 47 47 45 41 38 35 33 31 30 29 28 26 24 23 22 20 19 17 14 12 11 10 8 6 4 2 2 1
6 10 28 53 48 57 59 48 29 15 30 49 53 44 45 51 52 51 49 47 43 42 40 37 35 33 32 30 28 26 24 21 19 16 14 13 11 9 8 8 8 9 9 10
12 26 47 48 43 36 34 37 46 38 29 44 55 56 48 59 60 56 53 51 50 48 44 42 41 40 38 35 33 30 28 25 23 20 19 18 17 17 16 17 17 17 17 19
17 37 33 35 24 9 23 31 30 47 46 39 52 61 56 58 59 59 61 58 57 54 51 48 48 45 44 41 38 36 34 31 28 25 24 24 25 25 26 26 26 27 27 27
41 39 31 47 48 46 52 54 47 35 49 52 49 60 64 60 59 59 61 62 64 59 54 53 52 50 48 46 44 42 39 37 36 36 35 35 35 35 34 33 34 35 35 36
74 73 57 65 49 32 32 27 25 30 38 49 53 54 63 65 61 63 66 64 61 60 58 57 57 55 52 51 50 48 46 44 44 42 42 42 42 40 41 42 43 43 42 44
72 70 78 76 76 74 59 50 38 36 30 34 55 51 59 65 68 67 62 61 60 60 61 62 63 60 57 58 58 56 54 52 50 50 50 50 49 50 50 51 52 52 50 52
50 46 46 58 63 64 63 60 56 51 44 40 45 62 56 57 62 62 61 61 66 70 66 67 66 59 60 62 63 62 60 58 58 58 59 59 58 60 60 61 63 63 63 60
53 50 50 53 48 46 42 41 51 54 52 49 43 41 56 58 58 63 66 66 62 63 62 63 61 60 61 64 67 67 66 65 64 66 68 67 67 68 69 71 74 74 73 69
40 57 56 54 54 53 48 40 37 35 39 43 44 40 39 53 66 61 63 62 65 66 64 61 60 61 62 64 67 70 70 70 72 74 74 76 75 74 76 78 80 82 82 81
28 27 30 43 53 61 61 52 45 37 31 34 47 49 42 38 42 53 54 60 65 69 63 59 60 61 63 65 66 70 73 76 78 79 79 80 81 82 84 85 86 87 86 87
32 25 28 31 32 40 48 48 42 35 26 21 21 29 45 44 39 40 51 58 55 56 58 55 58 60 58 61 65 69 74 77 79 81 82 83 84 86 88 89 90 90 90 89
39 32 31 34 31 29 31 34 41 44 45 43 37 31 26 30 32 31 35 46 45 46 47 48 49 49 48 49 54 62 67 72 77 80 82 84 86 88 89 89 89 88 89 87
38 37 31 29 29 26 23 21 20 20 23 25 23 21 19 19 21 21 21 23 25 31 34 35 37 41 47 51 52 54 56 58 62 66 70 73 74 75 76 77 78 78 77 75
33 30 26 20 16 15 14 11 8 2 5 7 5 5 5 5 7 8 10 11 13 16 21 27 30 31 34 38 40 43 46 50 52 56 58 59 61 63 64 65 65 66 68 67
24 20 14 12 10 11 14 20 18 16 12 10 8 8 7 7 6 5 3 5 7 7 8 9 12 14 18 23 28 32 35 38 41 44 47 49 50 52 54 55 57 57 57 57
15 11 9 8 12 21 20 19 18 21 20 21 21 20 17 14 11 13 11 8 6 5 5 5 7 8 10 12 15 19 23 26 30 33 36 39 40 41 43 44 48 49 50 49
5 8 13 13 16 18 20 17 20 25 24 25 25 25 23 21 19 16 14 13 12 12 12 12 11 11 12 13 15 17 20 23 25 28 31 33 34 36 38 39 39 40 41 42
6 10 15 15 18 19 18 19 20 26 27 26 27 28 26 24 23 21 19 18 18 18 18 18 18 18 18 18 18 20 22 24 27 29 31 33 34 36 37 36 37 37 36 36
Wind_Direction_500mb
270 255 165 224 192 185 203 210 197 245 269 291 304 280 285 302 313 319 311 328 346 13 28 35 36 43 50 59 72 81 88 94 96 100 104 109 112 113 113 114 114 114 115 113
280 61 169 258 217 206 222 258 267 273 286 247 144 294 289 295 293 302 308 355 13 44 65 65 56 64 73 82 91 96 100 99 102 106 106 107 109 112 114 110 108 109 110 114
271 216 243 299 214 182 189 211 167 187 228 166 303 272 279 264 278 270 275 119 105 94 81 78 79 82 89 95 103 105 106 109 111 110 110 110 112 111 110 112 115 118 119 119
276 346 349 250 327 177 196 226 213 270 229 196 211 219 266 252 235 181 168 153 145 128 118 109 106 101 100 100 98 101 107 107 103 107 111 114 114 113 114 116 117 116 114 115
257 271 283 288 248 162 171 283 199 219 170 172 192 302 267 208 188 165 158 145 134 124 116 114 113 108 109 110 113 113 109 109 109 111 113 114 114 114 115 115 114 113 111 108
270 244 228 246 244 204 82 323 199 178 172 162 158 42 254 183 177 163 154 147 139 134 131 128 127 120 123 125 124 122 120 121 121 121 122 122 117 115 110 109 109 109 111 112
233 281 286 238 166 140 77 242 176 193 183 166 183 206 173 167 168 164 156 153 154 154 151 147 145 144 147 143 139 137 135 131 129 129 125 121 118 117 117 116 112 112 109 105
190 224 288 156 109 155 222 303 277 200 195 191 193 195 172 175 171 170 171 172 172 172 170 168 168 171 172 168 164 159 154 151 150 148 146 143 139 139 138 135 131 124 119 113
200 223 239 192 228 219 269 302 287 216 212 204 198 191 187 186 186 184 186 186 187 185 185 186 187 188 187 183 181 180 179 177 172 168 168 169 172 171 164 147 122 105 99 111
18 290 241 253 252 261 262 266 278 269 226 213 208 201 197 196 198 200 200 199 198 198 199 200 200 201 200 200 197 198 200 200 200 205 211 216 221 226 232 242 251 259 265 269
258 277 283 285 255 278 268 267 257 251 241 227 219 212 208 206 208 211 211 209 208 209 208 208 210 210 212 211 212 212 213 219 223 226 231 237 243 248 256 260 264 271 282 289
238 247 240 269 290 295 295 296 288 244 234 230 225 222 218 214 214 215 216 215 216 216 216 214 215 216 218 219 222 224 225 228 235 243 248 252 256 260 262 265 268 270 270 273
247 268 278 277 283 287 288 287 288 266 241 238 232 226 224 225 220 219 220 222 223 222 222 221 223 224 225 227 229 231 233 233 235 238 241 245 251 255 258 263 265 269 273 276
259 263 275 274 274 287 302 294 273 267 266 247 237 234 230 228 230 227 226 228 227 226 226 227 229 230 231 233 235 236 239 241 244 247 250 253 256 261 266 269 273 274 275 276
270 267 268 273 275 279 278 274 278 278 274 254 227 232 233 232 232 232 233 233 233 233 233 232 234 235 234 236 239 241 242 244 248 251 253 256 260 263 266 269 272 276 275 273
291 282 279 269 275 276 270 264 264 263 274 277 253 237 238 240 241 240 237 235 232 233 234 234 237 239 238 240 243 245 246 248 250 253 255 258 260 264 267 270 273 275 277 280
284 275 276 273 285 287 286 279 270 272 271 266 265 260 249 246 245 240 238 239 240 241 242 244 248 245 243 244 247 250 252 254 256 258 259 261 264 266 270 271 274 277 280 283
281 269 269 273 281 283 280 288 292 289 272 261 257 260 258 246 245 247 244 242 242 243 242 243 244 244 244 246 249 253 255 256 258 259 262 263 266 269 270 272 275 277 282 285
307 297 293 282 271 271 274 275 274 276 281 262 247 251 257 260 255 250 249 246 245 246 247 250 250 248 249 250 251 253 255 257 258 261 263 266 268 270 272 275 277 280 283 285
309 320 318 307 291 279 269 262 262 258 254 269 281 263 254 256 259 259 250 250 253 255 256 255 255 255 254 255 255 256 258 260 261 263 265 268 270 272 274 276 279 281 283 285
318 322 322 316 311 302 292 277 264 262 263 268 271 271 270 250 252 258 261 257 254 257 260 258 257 258 258 257 256 258 260 262 264 267 269 271 273 275 277 280 282 284 286 287
324 320 326 323 321 315 306 294 282 268 260 258 258 260 258 244 251 263 272 272 261 251 251 253 253 253 252 254 255 258 261 263 266 269 271 274 278 281 284 286 287 289 290 291
328 329 336 341 349 1 15 17 18 12 190 177 170 163 191 238 258 255 257 276 284 279 267 265 264 263 262 265 267 270 271 271 274 277 280 282 283 284 286 287 288 290 291 292
337 342 2 16 35 58 62 62 66 78 91 105 109 112 108 97 74 49 26 312 300 295 286 278 281 282 273 268 269 273 276 279 282 284 285 287 288 289 290 292 293 294 295 296
353 9 45 71 90 87 83 79 84 84 85 90 93 93 93 97 94 88 78 74 62 50 30 9 335 324 313 305 297 293 293 294 295 296 299 301 301 300 301 302 301 301 300 299
11 56 75 80 81 86 88 90 88 87 84 83 87 86 87 85 83 82 80 74 67 58 49 41 29 14 360 351 343 335 327 322 318 315 312 310 309 308 308 307 306 306 307 307
124 112 95 92 92 92 93 90 92 90 88 88 88 86 84 84 82 79 76 73 65 56 48 42 35 26 17 11 4 356 347 341 337 334 330 327 326 325 324 322 320 318 316 315
Wind_Speed_850mb
13 14 9 8 10 22 21 12 11 9 7 32 22 5 4 14 13 14 14 11 13 13 16 18 19 19 20 21 24 27 31 36 42 44 46 49 54 57 61 62 63 64 67 68
11 3 8 11 17 20 23 6 23 31 37 8 2 5 8 10 11 9 12 8 9 12 16 21 22 23 25 28 32 36 45 49 49 53 57 61 61 63 67 70 69 65 64 62
10 6 8 13 15 24 10 8 13 12 17 3 6 7 12 9 9 5 5 2 8 14 18 17 22 23 29 31 34 41 45 46 49 54 58 58 59 61 62 62 59 59 59 54
9 10 4 11 4 7 11 14 32 16 6 9 7 5 11 7 6 8 10 14 16 17 19 23 25 28 34 35 37 37 41 41 42 44 48 49 50 52 53 53 52 50 47 45
1 5 14 4 8 13 14 14 27 29 8 10 9 4 11 13 12 17 20 20 22 25 29 33 32 34 31 31 31 32 34 36 37 37 37 38 41 41 40 40 41 40 38 36
3 3 8 11 6 12 1 9 10 23 16 15 15 5 7 29 26 27 27 28 32 33 31 30 26 28 25 26 28 29 31 33 33 31 29 28 30 29 30 29 30 31 30 28
8 7 16 5 8 14 10 11 12 42 37 42 11 9 11 36 37 33 36 38 36 32 28 27 25 22 20 21 23 25 26 25 25 24 21 21 22 23 22 22 22 22 20 20
7 7 15 18 11 12 9 5 9 36 46 56 35 18 31 39 45 46 45 42 37 34 30 28 27 26 25 25 23 23 23 23 22 21 20 19 19 18 18 17 16 13 12 11
15 12 8 41 15 20 16 11 7 30 43 48 48 28 40 46 47 47 45 41 38 35 33 31 30 29 28 26 24 23 22 20 19 17 14 12 11 10 8 6 4 2 2 1
6 10 28 53 48 57 59 48 29 15 30 49 53 44 45 51 52 51 49 47 43 42 40 37 35 33 32 30 28 26 24 21 19 16 14 13 11 9 8 8 8 9 9 10
12 26 47 48 43 36 34 37 46 38 29 44 55 56 48 59 60 56 53 51 50 48 44 42 41 40 38 35 33 30 28 25 23 20 19 18 17 17 16 17 17 17 17 19
17 37 33 35 24 9 23 31 30 47 46 39 52 61 56 58 59 59 61 58 57 54 51 48 48 45 44 41 38 36 34 31 28 25 24 24 25 25 26 26 26 27 27 27
41 39 31 47 48 46 52 54 47 35 49 52 49 60 64 60 59 59 61 62 64 59 54 53 52 50 48 46 44 42 39 37 36 36 35 35 35 35 34 33 34 35 35 36
74 73 57 65 49 32 32 27 25 30 38 49 53 54 63 65 61 63 66 64 61 60 58 57 57 55 52 51 50 48 46 44 44 42 42 42 42 40 41 42 43 43 42 44
72 70 78 76 76 74 59 50 38 36 30 34 55 51 59 65 68 67 62 61 60 60 61 62 63 60 57 58 58 56 54 52 50 50 50 50 49 50 50 51 52 52 50 52
50 46 46 58 63 64 63 60 56 51 44 40 45 62 56 57 62 62 61 61 66 70 66 67 66 59 60 62 63 62 60 58 58 58 59 59 58 60 60 61 63 63 63 60
53 50 50 53 48 46 42 41 51 54 52 49 43 41 56 58 58 63 66 66 62 63 62 63 61 60 61 64 67 67 66 65 64 66 68 67 67 68 69 71 74 74 73 69
40 57 56 54 54 53 48 40 37 35 39 43 44 40 39 53 66 61 63 62 65 66 64 61 60 61 62 64 67 70 70 70 72 74 74 76 75 74 76 78 80 82 82 81
28 27 30 43 53 61 61 52 45 37 31 34 47 49 42 38 42 53 54 60 65 69 63 59 60 61 63 65 66 70 73 76 78 79 79 80 81 82 84 85 86 87 86 87
32 25 28 31 32 40 48 48 42 35 26 21 21 29 45 44 39 40 51 58 55 56 58 55 58 60 58 61 65 69 74 77 79 81 82 83 84 86 88 89 90 90 90 89
39 32 31 34 31 29 31 34 41 44 45 43 37 31 26 30 32 31 35 46 45 46 47 48 49 49 48 49 54 62 67 72 77 80 82 84 86 88 89 89 89 88 89 87
38 37 31 29 29 26 23 21 20 20 23 25 23 21 19 19 21 21 21 23 25 31 34 35 37 41 47 51 52 54 56 58 62 66 70 73 74 75 76 77 78 78 77 75
33 30 26 20 16 15 14 11 8 2 5 7 5 5 5 5 7 8 10 11 13 16 21 27 30 31 34 38 40 43 46 50 52 56 58 59 61 63 64 65 65 66 68 67
24 20 14 12 10 11 14 20 18 16 12 10 8 8 7 7 6 5 3 5 7 7 8 9 12 14 18 23 28 32 35 38 41 44 47 49 50 52 54 55 57 57 57 57
15 11 9 8 12 21 20 19 18 21 20 21 21 20 17 14 11 13 11 8 6 5 5 5 7 8 10 12 15 19 23 26 30 33 36 39 40 41 43 44 48 49 50 49
5 8 13 13 16 18 20 17 20 25 24 25 25 25 23 21 19 16 14 13 12 12 12 12 11 11 12 13 15 17 20 23 25 28 31 33 34 36 38 39 39 40 41 42
6 10 15 15 18 19 18 19 20 26 27 26 27 28 26 24 23 21 19 18 18 18 18 18 18 18 18 18 18 20 22 24 27 29 31 33 34 36 37 36 37 37 36 36
Wind_Direction_850mb
270 255 165 224 192 185 203 210 197 245 269 291 304 280 285 302 313 319 311 328 346 13 28 35 36 43 50 59 72 81 88 94 96 100 104 109 112 113 113 114 114 114 115 113
280 61 169 258 217 206 222 258 267 273 286 247 144 294 289 295 293 302 308 355 13 44 65 65 56 64 73 82 91 96 100 99 102 106 106 107 109 112 114 110 108 109 110 114
271 216 243 299 214 182 189 211 167 187 228 166 303 272 279 264 278 270 275 119 105 94 81 78 79 82 89 95 103 105 106 109 111 110 110 110 112 111 110 112 115 118 119 119
276 346 349 250 327 177 196 226 213 270 229 196 211 219 266 252 235 181 168 153 145 128 118 109 106 101 100 100 98 101 107 107 103 107 111 114 114 113 114 116 117 116 114 115
257 271 283 288 248 162 171 283 199 219 170 172 192 302 267 208 188 165 158 145 134 124 116 114 113 108 109 110 113 113 109 109 109 111 113 114 114 114 115 115 114 113 111 108
270 244 228 246 244 204 82 323 199 178 172 162 158 42 254 183 177 163 154 147 139 134 131 128 127 120 123 125 124 122 120 121 121 121 122 122 117 115 110 109 109 109 111 112
233 281 286 238 166 140 77 242 176 193 183 166 183 206 173 167 168 164 156 153 154 154 151 147 145 144 147 143 139 137 135 131 129 129 125 121 118 117 117 116 112 112 109 105
190 224 288 156 109 155 222 303 277 200 195 191 193 195 172 175 171 170 171 172 172 172 170 168 168 171 172 168 164 159 154 151 150 148 146 143 139 139 138 135 131 124 119 113
200 223 239 192 228 219 269 302 287 216 212 204 198 191 187 186 186 184 186 186 187 185 185 186 187 188 187 183 181 180 179 177 172 168 168 169 172 171 164 147 122 105 99 111
18 290 241 253 252 261 262 266 278 269 226 213 208 201 197 196 198 200 200 199 198 198 199 200 200 201 200 200 197 198 200 200 200 205 211 216 221 226 232 242 251 259 265 269
258 277 283 285 255 278 268 267 257 251 241 227 219 212 208 206 208 211 211 209 208 209 208 208 210 210 212 211 212 212 213 219 223 226 231 237 243 248 256 260 264 271 282 289
238 247 240 269 290 295 295 296 288 244 234 230 225 222 218 214 214 215 216 215 216 216 216 214 215 216 218 219 222 224 225 228 235 243 248 252 256 260 262 265 268 270 270 273
247 268 278 277 283 287 288 287 288 266 241 238 232 226 224 225 220 219 220 222 223 222 222 221 223 224 225 227 229 231 233 233 235 238 241 245 251 255 258 263 265 269 273 276
259 263 275 274 274 287 302 294 273 267 266 247 237 234 230 228 230 227 226 228 227 226 226 227 229 230 231 233 235 236 239 241 244 247 250 253 256 261 266 269 273 274 275 276
270 267 268 273 275 279 278 274 278 278 274 254 227 232 233 232 232 232 233 233 233 233 233 232 234 235 234 236 239 241 242 244 248 251 253 256 260 263 266 269 272 276 275 273
291 282 279 269 275 276 270 264 264 263 274 277 253 237 238 240 241 240 237 235 232 233 234 234 237 239 238 240 243 245 246 248 250 253 255 258 260 264 267 270 273 275 277 280
284 275 276 273 285 287 286 279 270 272 271 266 265 260 249 246 245 240 238 239 240 241 242 244 248 245 243 244 247 250 252 254 256 258 259 261 264 266 270 271 274 277 280 283
281 269 269 273 281 283 280 288 292 289 272 261 257 260 258 246 245 247 244 242 242 243 242 243 244 244 244 246 249 253 255 256 258 259 262 263 266 269 270 272 275 277 282 285
307 297 293 282 271 271 274 275 274 276 281 262 247 251 257 260 255 250 249 246 245 246 247 250 250 248 249 250 251 253 255 257 258 261 263 266 268 270 272 275 277 280 283 285
309 320 318 307 291 279 269 262 262 258 254 269 281 263 254 256 259 259 250 250 253 255 256 255 255 255 254 255 255 256 258 260 261 263 265 268 270 272 274 276 279 281 283 285
318 322 322 316 311 302 292 277 264 262 263 268 271 271 270 250 252 258 261 257 254 257 260 258 257 258 258 257 256 258 260 262 264 267 269 271 273 275 277 280 282 284 286 287
324 320 326 323 321 315 306 294 282 268 260 258 258 260 258 244 251 263 272 272 261 251 251 253 253 253 252 254 255 258 261 263 266 269 271 274 278 281 284 286 287 289 290 291
328 329 336 341 349 1 15 17 18 12 190 177 170 163 191 238 258 255 257 276 284 279 267 265 264 263 262 265 267 270 271 271 274 277 280 282 283 284 286 287 288 290 291 292
337 342 2 16 35 58 62 62 66 78 91 105 109 112 108 97 74 49 26 312 300 295 286 278 281 282 273 268 269 273 276 279 282 284 285 287 288 289 290 292 293 294 295 296
353 9 45 71 90 87 83 79 84 84 85 90 93 93 93 97 94 88 78 74 62 50 30 9 335 324 313 305 297 293 293 294 295 296 299 301 301 300 301 302 301 301 300 299
11 56 75 80 81 86 88 90 88 87 84 83 87 86 87 85 83 82 80 74 67 58 49 41 29 14 360 351 343 335 327 322 318 315 312 310 309 308 308 307 306 306 307 307
124 112 95 92 92 92 93 90 92 90 88 88 88 86 84 84 82 79 76 73 65 56 48 42 35 26 17 11 4 356 347 341 337 334 330 327 326 325 324 322 320 318 316 315